Regional Weather Roundup
Issued by NWS

Home | Current Version | Previous Version | Text Only | Print | Product List | Glossary Off
Versions: 1 2 3 4 5 6 7 8 9 10 11 12 13 14 15 16 17 18 19 20 21 22 23 24 25 26 27 28 29 30 31 32 33 34 35 36 37 38 39 40 41 42 43 44 45 46 47 48 49 50

000
ASUS45 KBOU 250307
RWRCO

WEATHER ROUNDUP FOR COLORADO
NATIONAL WEATHER SERVICE DENVER/BOULDER CO
900 PM MDT WED AUG 24 2016

NOTE: "FAIR" INDICATES FEW OR NO CLOUDS BELOW 12000 FEET WITH NO
SIGNIFICANT WEATHER AND/OR OBSTRUCTIONS TO VISIBILITY.

COZ001>005-013-030-031-250400-
...NORTHWEST COLORADO...

CITY           SKY/WX    TMP DP  RH WIND       PRES   REMARKS
CRAIG          FAIR      66  34  30 S13       30.17R
HAYDEN         FAIR      63  34  34 SW9G17    30.19R
MEEKER         LGT RAIN  59  46  62 CALM      30.21S
MOUNT WERNER   NOT AVBL
STEAMBOAT SPGS FAIR      62  37  39 NE3       30.22R
WALDEN         FAIR      46  37  71 SE3       30.33R
$$

COZ006>008-011-250400-
...WEST CENTRAL VALLEYS...

CITY           SKY/WX    TMP DP  RH WIND       PRES   REMARKS
GRAND JUNCTION FAIR      72  40  31 NE24G32   30.09F
MONTROSE       MOCLDY    67  42  40 S5        30.17R
EAGLE          MOCLDY    66  36  32 SW6       30.24R
RIFLE          FAIR      64  49  57 W3        30.16R
DELTA          NOT AVBL
NUCLA          FAIR      66  45  45 SE10      30.23R
$$

COZ017>023-064>068-250400-
...SOUTHWEST COLORADO...

CITY           SKY/WX    TMP DP  RH WIND       PRES   REMARKS
DURANGO        FAIR      59  46  62 SE8       30.26R
CORTEZ         FAIR      61  49  64 SE8       30.20R
PAGOSA SPRINGS FAIR      52  46  79 CALM      30.34R
TELLURIDE      MOCLDY    53  41  64 CALM      30.43R
WOLF CREEK PAS FAIR      37  37 100 SW6       30.59R
$$

COZ009-010-012-014-032>034-037-058>063-250400-
...CENTRAL COLORADO...

CITY           SKY/WX    TMP DP  RH WIND       PRES   REMARKS
ASPEN          FAIR      52  40  63 S5        30.31R
BUENA VISTA    NOT AVBL
COPPER MTN     MOCLDY    45  32  61 S8        30.56R
BERTHOUD PASS  HAZE      32  19  59 E15G22    30.59R VSB<1/4 WCI  22
COTTONWOOD PAS FAIR      50  43  76 CALM      30.47R
GUNNISON       FAIR      57  37  47 N9        30.33R
KREMMLING      MOCLDY    55  41  58 N3        30.31R
LEADVILLE      FAIR      44  42  93 SW5       30.44R
MONARCH PASS   FOG       37  36  93 E14       30.66R VSB<1/4
SALIDA         FAIR      54  49  82 E6        30.43R
SUNLIGHT       FAIR      46  34  61 NE5       30.52R
WILKERSON PASS FOG       37  37 100 S8        30.56R VSB<1/4
$$

COZ069>075-250400-
...SAN LUIS VALLEY/SANGRE DE CRISTO MOUNTAINS...

CITY           SKY/WX    TMP DP  RH WIND       PRES   REMARKS
ALAMOSA        FAIR      53  45  74 E10       30.32R
LA VETA PASS   FOG       43  41  93 CALM      30.47F VSB<1/4
SAGUACHE       MOCLDY    50  46  87 N8        30.36R
$$

COZ035-036-038>040-250400-
...NORTHERN COLORADO FRONT RANGE...

CITY           SKY/WX    TMP DP  RH WIND       PRES   REMARKS
DENVER INTL AP CLOUDY    61  53  75 CALM      30.28R
DMNS CITY PARK   N/A     57  55  95 NE1       30.26R
AURORA         LGT RAIN  60  52  77 W2        30.29R
FRONT RANGE AP CLOUDY    61  54  77 E9        30.28R
ERIE MUNI ARPT MOCLDY    59  54  84 NW5       30.26R
BOULDER MUN AP FAIR      59  54  82 CALM      30.27R
CENTENNIAL     CLOUDY    60  47  61 CALM      30.29R
BROOMFIELD     MOCLDY    57  52  82 W8        30.29R
FORT COLLINS   FAIR      57  52  82 SW7       30.24F
LONGMONT       FAIR      61  55  80 SW6       30.28R
$$

COZ041-046-047-076>085-087-088-250400-
...PIKES PEAK/PALMER DIVIDE AND SOUTHERN FOOTHILLS...

CITY           SKY/WX    TMP DP  RH WIND       PRES   REMARKS
COLO. SPRINGS  MOCLDY    60  46  59 NW5       30.32R
A. F. ACADEMY  MOCLDY    54  52  94 E9        30.30F
SCHRIEVER AFB  NOT AVBL
ELLICOTT       NOT AVBL
FALCON         MOCLDY    52  44  74 NW5       30.35R
FORT CARSON    NOT AVBL
LIMON          FAIR      59  34  39 E8        30.28R
MONUMENT HILL  CLOUDY    50  45  81 S7        30.35R
TRINIDAD       FAIR      55  53  93 W7        30.28S
$$

COZ042>045-048>051-090-091-250400-
...NORTHEAST COLORADO...

CITY           SKY/WX    TMP DP  RH WIND       PRES   REMARKS
GREELEY ARPT   CLOUDY    61  52  72 CALM      30.25R
AKRON          FAIR      61  37  41 SE9       30.24R
BURLINGTON     FAIR      59  39  47 CALM      30.23R
WRAY           FAIR      64  41  42 S5        30.22R
STERLING       FAIR      63  43  48 CALM      30.21R
HOLYOKE        FAIR      63  46  55 S7        30.21R
FORT MORGAN    FAIR      60  40  47 CALM      30.24R
$$

COZ086-089-092>099-250400-
...SOUTHEAST COLORADO...

CITY           SKY/WX    TMP DP  RH WIND       PRES   REMARKS
PUEBLO         FAIR      65  54  67 W7        30.22S
LA JUNTA       MOCLDY    69  44  40 E8        30.20R
LAMAR          FAIR      64  44  48 N8        30.16R
SPRINGFIELD      N/A     62  59  90 SW3       30.22R
$$



USA.gov is the U.S. government's official web portal to all federal, state and local government web resources and services.